ASTRA 2E

Last updated on Tue Sep 22 2026 00:03:12 GMT+0000 (Coordinated Universal Time)

1 39285U 13056A 26264.20965611 .00000146 00000+0 00000+0 0 9991 2 39285 0.0952 303.5167 0002142 234.6559 285.9036 1.00269312 47382
UTC large
Height (km)
Speed (km/s)
/
Latitude / Longitude
Inclination (degrees)
Orbital Period (minutes)
Azimuth
Elevation
Range (km)
Doppler Factor

Next 0 passes for location: London (51.5072 / 0.1276)

No passes found over London.
ASTRA 2E